TimePST,TemperatureF,Dew PointF,Humidity,Sea Level PressureIn,VisibilityMPH,Wind Direction,Wind SpeedMPH,Gust SpeedMPH,PrecipitationIn,Events,Conditions,WindDirDegrees,DateUTC
12:53 AM,39.9,35.1,83,30.17,10.0,Calm,Calm,-,N/A,,Clear,0,2012-12-08 08:53:00
1:53 AM,39.9,35.1,83,30.18,10.0,East,3.5,-,N/A,,Overcast,100,2012-12-08 09:53:00
2:53 AM,39.2,35.6,87,30.17,10.0,SSE,3.5,-,N/A,,Overcast,150,2012-12-08 10:53:00
3:53 AM,41.0,35.1,79,30.19,10.0,Calm,Calm,-,N/A,,Overcast,0,2012-12-08 11:53:00
4:53 AM,41.0,35.1,79,30.19,10.0,Calm,Calm,-,N/A,,Overcast,0,2012-12-08 12:53:00
5:37 AM,41.0,35.6,81,30.17,10.0,SSE,5.8,-,N/A,,Overcast,150,2012-12-08 13:37:00
5:53 AM,41.0,35.1,79,30.20,10.0,SE,3.5,-,N/A,,Overcast,130,2012-12-08 13:53:00
6:32 AM,41.0,35.6,81,30.19,10.0,ESE,4.6,-,N/A,,Overcast,120,2012-12-08 14:32:00
6:53 AM,41.0,36.0,82,30.21,10.0,East,3.5,-,N/A,,Overcast,100,2012-12-08 14:53:00
7:36 AM,42.8,35.6,76,30.20,10.0,Calm,Calm,-,N/A,,Overcast,0,2012-12-08 15:36:00
7:53 AM,42.1,36.0,79,30.22,10.0,Calm,Calm,-,N/A,,Overcast,0,2012-12-08 15:53:00
8:48 AM,42.8,35.6,76,30.21,10.0,SE,3.5,-,N/A,,Overcast,140,2012-12-08 16:48:00
8:53 AM,42.1,36.0,79,30.23,10.0,Variable,3.5,-,N/A,,Overcast,0,2012-12-08 16:53:00
9:53 AM,44.1,37.0,76,30.25,10.0,Calm,Calm,-,N/A,,Mostly Cloudy,0,2012-12-08 17:53:00
10:53 AM,45.0,37.9,76,30.27,10.0,Calm,Calm,-,N/A,,Mostly Cloudy,0,2012-12-08 18:53:00
11:53 AM,46.0,36.0,68,30.27,10.0,NNW,3.5,-,N/A,,Overcast,340,2012-12-08 19:53:00
11:56 AM,46.4,37.4,71,30.25,10.0,NNW,6.9,-,N/A,,Overcast,340,2012-12-08 19:56:00
12:53 PM,45.0,37.0,74,30.27,10.0,North,4.6,-,N/A,,Overcast,350,2012-12-08 20:53:00
1:53 PM,45.0,34.0,65,30.27,10.0,NNW,3.5,-,N/A,,Clear,330,2012-12-08 21:53:00
2:53 PM,45.0,34.0,65,30.28,10.0,Calm,Calm,-,N/A,,Clear,0,2012-12-08 22:53:00
3:53 PM,45.0,35.1,68,30.30,10.0,Variable,3.5,-,N/A,,Clear,0,2012-12-08 23:53:00
4:53 PM,43.0,35.1,74,30.31,10.0,Calm,Calm,-,N/A,,Mostly Cloudy,0,2012-12-09 00:53:00
5:53 PM,43.0,36.0,76,30.31,10.0,Calm,Calm,-,N/A,,Mostly Cloudy,0,2012-12-09 01:53:00
6:53 PM,42.1,36.0,79,30.32,10.0,Calm,Calm,-,N/A,,Partly Cloudy,0,2012-12-09 02:53:00
7:53 PM,42.1,36.0,79,30.34,10.0,Calm,Calm,-,N/A,,Overcast,0,2012-12-09 03:53:00
8:53 PM,42.1,36.0,79,30.35,10.0,Calm,Calm,-,N/A,,Overcast,0,2012-12-09 04:53:00
9:53 PM,41.0,36.0,82,30.36,10.0,Calm,Calm,-,N/A,,Scattered Clouds,0,2012-12-09 05:53:00
10:53 PM,39.9,36.0,86,30.37,10.0,Calm,Calm,-,N/A,,Mostly Cloudy,0,2012-12-09 06:53:00
11:53 PM,41.0,35.1,79,30.37,10.0,Calm,Calm,-,N/A,,Mostly Cloudy,0,2012-12-09 07:53:00